Home   Weather   Plano   Past weeks

Flag for USA Past Weather in Plano, Texas, USA — Yesterday and Last 2 Weeks

Now
68 °F

Low clouds.


Feels Like: 68 °F
Forecast: 63 / 72 °F
Wind: 12 mph from North

Location: McKinney Municipal Airport

Current Time: Sep 26, 2016 at 3:54:28 AM

Latest Report: Sep 26, 2016 at 2:53 AM


Visibility: 10 mi

Pressure: 30.11 "Hg

Humidity: 90%

Dew Point: 65 °F

Location of PlanoLocation

Past Weather in Plano — Graph

°F

Plano Temperature Yesterday

Maximum temperature yesterday: 80 °F (at 12:53 AM)
Minimum temperature yesterday: 70 °F (at 11:53 PM)
Average temperature yesterday: 74 °F

High & Low Weather Summary for the Past Weeks

 TemperatureHumidityPressure
High96 °F (Sep 19, 3:53 PM)100% (Sep 15, 6:53 AM)30.21 "Hg (Sep 15, 6:53 AM)
Low56 °F (Sep 11, 6:53 AM)33% (Sep 22, 4:53 PM)29.86 "Hg (Sep 16, 5:53 PM)
Average80 °F72%29.99 "Hg
* Reported Sep 11 2:53 AM — Sep 26 2:53 AM, Plano, Weather by CustomWeather, © 2016

Note: Actual official high and low records may vary slightly from our data, if they occured in-between our weather recording intervals... More about our weather records

Advertising

Plano Weather History for the Previous 24 Hours

Scroll right to see more
 ConditionsComfort  
Time TempWeatherWind HumidityBarometerVisibility
2:53 AM
Mon, Sep 26
68 °FLow clouds.12 mph90%30.11 "Hg10 mi
1:53 AM68 °FLow clouds.13 mph93%30.10 "Hg10 mi
12:53 AM69 °FLow clouds.14 mph93%30.09 "Hg10 mi
11:53 PM
Sun, Sep 25
70 °FOvercast.14 mph93%30.09 "Hg10 mi
10:53 PM71 °FOvercast.10 mph93%30.08 "Hg10 mi
9:53 PM72 °FMostly cloudy.10 mph91%30.08 "Hg10 mi
8:53 PM73 °FPassing clouds.6 mph94%30.07 "Hg10 mi
7:53 PM74 °FPassing clouds.7 mph94%30.04 "Hg10 mi
6:53 PM74 °FCloudy.7 mph97%30.02 "Hg10 mi
5:53 PM75 °FLight rain. Broken clouds.5 mph88%30.04 "Hg10 mi
4:53 PM74 °FLight rain. Cloudy.5 mph94%30.00 "Hg10 mi
3:53 PM73 °FLight rain. Mostly cloudy.5 mph97%30.02 "Hg10 mi
2:53 PM74 °FRain. Fog.5 mph94%30.01 "Hg5 mi
1:53 PM72 °FThundershowers. More clouds than sun.5 mph97%30.02 "Hg10 mi
1:04 PM72 °FHeavy rain. Fog.7 mph97%30.05 "Hg2 mi
11:58 AM75 °FThunderstorms. Mostly cloudy.12 mph94%30.05 "Hg7 mi
11:01 AM76 °FMostly cloudy.6 mph88%30.05 "Hg10 mi
10:02 AM77 °FThunderstorms. Mostly cloudy.5 mph90%30.03 "Hg10 mi
9:53 AM77 °FThundershowers. Mostly cloudy.6 mph90%30.01 "Hg10 mi
8:53 AM73 °FLight rain. Mostly cloudy.3 mph97%30.02 "Hg7 mi
7:53 AM72 °FOvercast.8 mph97%30.01 "Hg10 mi
6:53 AM75 °FOvercast.No wind94%29.99 "Hg10 mi
5:53 AM75 °FMostly cloudy.3 mph90%29.98 "Hg10 mi
4:53 AM75 °FPassing clouds.6 mph88%29.97 "Hg10 mi
3:53 AM77 °FOvercast.5 mph82%29.97 "Hg10 mi
Weather by CustomWeather, © 2016

See weather overviewHow to use our weather pages